Volk, WI

9:59 AM CDT on August 18, 2017 (GMT -0500)
Volk

Weather History for KVOK - October, 2013

Change the Weather History Date:

Friday, October 25, 2013

  Actual Average Record
Temperature  
Mean Temperature 36 °F -  
Max Temperature 51 °F 51 °F 71 °F (2012)
Min Temperature 23 °F 38 °F 21 °F (2007)
Degree Days  
Heating Degree Days 28    
Moisture  
Dew Point 27 °F    
Average Humidity 63    
Maximum Humidity 96    
Minimum Humidity 40    
Precipitation  
Precipitation 0.00 in - - ()
Sea Level Pressure  
Sea Level Pressure 30.16 in    
Wind  
Wind Speed 7 mph (SW)    
Max Wind Speed 22 mph    
Max Gust Speed 32 mph    
Visibility 10 miles    
Events      
Averages and records for this station are not official NWS values.
T = Trace of Precipitation, MM = Missing Value Source: NWS Daily Summary

Daily Weather History Graph

Daily Weather History Graph

Search for Another Location

Airport or City:

Trip Planner

Search our weather history database for the weather conditions in past years. The results will help you decide how hot, cold, wet, or windy it might be!

Date:

Astronomy

Oct. 25, 2013 Rise Set
Actual Time 7:28 AM CDT 6:00 PM CDT
Civil Twilight 6:59 AM CDT 6:30 PM CDT
Nautical Twilight 6:25 AM CDT 7:04 PM CDT
Astronomical Twilight 5:51 AM CDT 7:37 PM CDT
Moon 11:17 PM CDT (10/25) 1:12 PM CDT (10/25)
Length of Visible Light 11h 31m
Length of Day
10h 32m
Waning Gibbous, 62% of the Moon is Illuminated
Oct 25
Waning Gibbous
Oct 26
Last Quarter
Nov 3
New
Nov 9
First Quarter
Nov 17
Full

Hourly Weather History & Observations

Time (CDT) Temp. Windchill Dew Point Humidity Pressure Visibility Wind Dir Wind Speed Gust Speed Precip Events Conditions
12:58 AM 25.5 °F 19.9 °F 23.4 °F 92% 30.33 in 10.0 mi West 4.6 mph - N/A   Clear
1:58 AM 23.0 °F - 21.9 °F 96% 30.33 in 10.0 mi WNW 2.3 mph - N/A   Clear
2:58 AM 24.6 °F - 23.0 °F 94% 30.33 in 10.0 mi Calm Calm - N/A   Overcast
3:58 AM 26.1 °F - 24.8 °F 95% 30.34 in 10.0 mi Calm Calm - N/A   Mostly Cloudy
4:58 AM 26.8 °F - 25.5 °F 95% 30.34 in 10.0 mi Calm Calm - N/A   Overcast
5:58 AM 28.4 °F - 27.3 °F 96% 30.35 in 10.0 mi Calm Calm - N/A   Overcast
6:58 AM 31.5 °F 25.8 °F 27.7 °F 86% 30.35 in 10.0 mi SW 5.8 mph - N/A   Overcast
7:58 AM 32.0 °F 26.4 °F 26.6 °F 80% 30.34 in 10.0 mi SW 5.8 mph - N/A   Mostly Cloudy
8:58 AM 33.8 °F 30.8 °F 28.4 °F 81% 30.34 in 10.0 mi SW 3.5 mph - N/A   Mostly Cloudy
9:58 AM 39.2 °F 35.0 °F 28.4 °F 65% 30.33 in 10.0 mi WSW 5.8 mph - N/A   Mostly Cloudy
10:58 AM 42.8 °F 37.0 °F 28.4 °F 57% 30.31 in 10.0 mi SW 10.4 mph - N/A   Mostly Cloudy
11:58 AM 44.6 °F 41.4 °F 28.4 °F 53% 30.27 in 10.0 mi WSW 5.8 mph - N/A   Mostly Cloudy
12:58 PM 48.2 °F - 26.6 °F 43% 30.23 in 10.0 mi WSW 10.4 mph - N/A   Scattered Clouds
1:58 PM 50.0 °F - 26.6 °F 40% 30.18 in 10.0 mi WSW 16.1 mph 26.5 mph N/A   Mostly Cloudy
2:58 PM 50.0 °F - 30.2 °F 47% 30.13 in 10.0 mi SSW 12.7 mph 20.7 mph N/A   Overcast
3:58 PM 50.7 °F - 28.2 °F 42% 30.07 in 10.0 mi SSW 10.4 mph - N/A   Mostly Cloudy
4:58 PM 50.4 °F - 27.5 °F 41% 30.02 in 10.0 mi SSW 12.7 mph 19.6 mph N/A   Mostly Cloudy
5:58 PM 49.5 °F - 27.1 °F 42% 29.99 in 10.0 mi SSW 12.7 mph 21.9 mph N/A   Mostly Cloudy
6:58 PM 48.9 °F - 27.0 °F 43% 29.94 in 10.0 mi SSW 16.1 mph 26.5 mph N/A   Scattered Clouds
7:58 PM 49.6 °F - 27.9 °F 43% 29.91 in 10.0 mi SW 16.1 mph 29.9 mph N/A   Mostly Cloudy
8:58 PM 49.5 °F - 29.7 °F 47% 29.89 in 10.0 mi SW 21.9 mph 29.9 mph N/A   Partly Cloudy
9:58 PM 49.6 °F - 30.6 °F 48% 29.87 in 10.0 mi SW 21.9 mph 29.9 mph N/A   Scattered Clouds
10:58 PM 50.4 °F - 30.9 °F 47% 29.85 in 10.0 mi SW 20.7 mph 31.1 mph N/A   Mostly Cloudy
11:58 PM 50.9 °F - 30.9 °F 46% 29.81 in 10.0 mi SW 20.7 mph 32.2 mph N/A   Overcast